TimeCST,TemperatureF,Dew PointF,Humidity,Sea Level PressureIn,VisibilityMPH,Wind Direction,Wind SpeedMPH,Gust SpeedMPH,PrecipitationIn,Events,Conditions,WindDirDegrees,DateUTC
12:20 AM,10.0,0.7,66,29.70,10.0,NW,11.5,-,N/A,,Scattered Clouds,310,2014-01-17 06:20:00
12:35 AM,9.7,1.0,68,29.69,10.0,NW,8.1,-,N/A,,Mostly Cloudy,310,2014-01-17 06:35:00
12:55 AM,9.5,1.0,69,29.70,10.0,WNW,8.1,-,N/A,,Overcast,300,2014-01-17 06:55:00
1:15 AM,10.0,1.6,69,29.70,10.0,WNW,9.2,-,N/A,,Overcast,290,2014-01-17 07:15:00
1:35 AM,10.0,2.5,72,29.71,10.0,WNW,10.4,-,N/A,,Overcast,290,2014-01-17 07:35:00
1:55 AM,10.0,2.3,71,29.72,10.0,WNW,8.1,-,N/A,,Overcast,300,2014-01-17 07:55:00
2:15 AM,9.9,1.8,70,29.73,10.0,WNW,12.7,18.4,N/A,,Overcast,290,2014-01-17 08:15:00
2:35 AM,9.5,1.4,70,29.73,10.0,WNW,15.0,19.6,N/A,,Overcast,290,2014-01-17 08:35:00
2:55 AM,9.1,0.9,69,29.73,10.0,WNW,11.5,17.3,N/A,,Overcast,290,2014-01-17 08:55:00
3:15 AM,8.6,0.5,70,29.74,10.0,West,12.7,-,N/A,,Overcast,280,2014-01-17 09:15:00
3:35 AM,8.4,0.3,70,29.74,10.0,West,9.2,-,N/A,,Overcast,270,2014-01-17 09:35:00
3:55 AM,7.9,0.1,71,29.74,10.0,West,10.4,-,N/A,,Overcast,270,2014-01-17 09:55:00
4:15 AM,7.0,0.1,74,29.75,10.0,West,12.7,-,N/A,,Overcast,260,2014-01-17 10:15:00
4:35 AM,6.6,0.3,75,29.75,10.0,West,11.5,-,N/A,,Mostly Cloudy,270,2014-01-17 10:35:00
4:55 AM,5.7,0.1,78,29.76,10.0,West,12.7,-,N/A,,Mostly Cloudy,260,2014-01-17 10:55:00
5:15 AM,5.4,-0.0,78,29.76,10.0,West,12.7,-,N/A,,Mostly Cloudy,260,2014-01-17 11:15:00
5:35 AM,5.0,-0.4,78,29.76,10.0,West,11.5,-,N/A,,Scattered Clouds,260,2014-01-17 11:35:00
5:55 AM,5.7,0.5,79,29.76,10.0,West,9.2,-,N/A,,Overcast,260,2014-01-17 11:55:00
6:15 AM,7.0,1.4,78,29.77,10.0,West,12.7,-,N/A,,Overcast,270,2014-01-17 12:15:00
6:35 AM,7.7,1.8,77,29.77,10.0,West,12.7,-,N/A,,Overcast,270,2014-01-17 12:35:00
6:59 AM,6.8,1.4,79,29.77,10.0,West,12.7,17.3,N/A,,Mostly Cloudy,280,2014-01-17 12:59:00
7:17 AM,8.6,1.4,73,29.78,10.0,West,11.5,16.1,N/A,,Mostly Cloudy,270,2014-01-17 13:17:00
7:20 AM,7.9,2.1,77,29.77,10.0,West,13.8,-,N/A,,Overcast,280,2014-01-17 13:20:00
7:35 AM,8.2,2.1,76,29.78,10.0,West,12.7,-,N/A,,Overcast,280,2014-01-17 13:35:00
7:55 AM,8.8,2.7,76,29.78,10.0,West,13.8,-,N/A,Snow,Light Snow,280,2014-01-17 13:55:00
8:15 AM,9.0,3.0,77,29.79,10.0,West,11.5,17.3,N/A,,Overcast,280,2014-01-17 14:15:00
8:35 AM,9.3,3.2,76,29.80,10.0,West,13.8,18.4,N/A,,Overcast,280,2014-01-17 14:35:00
8:55 AM,9.5,3.7,77,29.80,10.0,West,12.7,-,N/A,Snow,Light Snow,270,2014-01-17 14:55:00
9:15 AM,10.0,4.6,79,29.81,2.0,West,10.4,18.4,N/A,Snow,Light Snow,270,2014-01-17 15:15:00
9:35 AM,10.4,5.0,79,29.80,2.5,West,10.4,-,N/A,Snow,Light Snow,280,2014-01-17 15:35:00
9:55 AM,11.3,5.7,78,29.81,5.0,West,12.7,17.3,N/A,Snow,Light Snow,280,2014-01-17 15:55:00
10:15 AM,11.8,6.3,78,29.82,2.5,West,12.7,-,N/A,Snow,Light Snow,270,2014-01-17 16:15:00
10:35 AM,12.0,6.8,80,29.82,2.0,West,11.5,-,N/A,Snow,Light Snow,280,2014-01-17 16:35:00
10:55 AM,12.9,7.7,80,29.82,3.0,West,11.5,-,N/A,Snow,Light Snow,280,2014-01-17 16:55:00
11:15 AM,13.6,7.7,77,29.82,7.0,West,13.8,-,N/A,Snow,Light Snow,280,2014-01-17 17:15:00
11:35 AM,14.0,7.9,77,29.82,10.0,West,11.5,18.4,N/A,Snow,Light Snow,280,2014-01-17 17:35:00
11:55 AM,14.5,8.6,77,29.82,4.0,West,12.7,-,N/A,Snow,Light Snow,280,2014-01-17 17:55:00
12:15 PM,14.7,9.3,79,29.82,2.0,WNW,11.5,18.4,N/A,Snow,Light Snow,290,2014-01-17 18:15:00
12:35 PM,14.9,9.9,80,29.82,1.8,West,16.1,-,N/A,Snow,Light Snow,280,2014-01-17 18:35:00
12:55 PM,15.6,10.4,80,29.82,1.8,WNW,15.0,-,N/A,Snow,Light Snow,290,2014-01-17 18:55:00
1:15 PM,17.4,10.2,73,29.81,4.0,WNW,15.0,20.7,N/A,Snow,Light Snow,290,2014-01-17 19:15:00
1:35 PM,17.1,10.0,74,29.82,3.0,WNW,12.7,19.6,N/A,Snow,Light Snow,300,2014-01-17 19:35:00
1:55 PM,17.1,10.2,75,29.82,10.0,WNW,11.5,-,N/A,Snow,Light Snow,290,2014-01-17 19:55:00
2:15 PM,17.6,10.0,72,29.83,10.0,West,13.8,-,N/A,Snow,Light Snow,280,2014-01-17 20:15:00
2:35 PM,17.4,9.5,71,29.84,10.0,WNW,13.8,17.3,N/A,Snow,Light Snow,290,2014-01-17 20:35:00
2:55 PM,18.0,9.7,70,29.85,10.0,NW,11.5,-,N/A,Snow,Light Snow,310,2014-01-17 20:55:00
3:15 PM,18.0,9.7,70,29.86,10.0,West,12.7,-,N/A,Snow,Light Snow,280,2014-01-17 21:15:00
3:35 PM,17.6,9.5,71,29.87,10.0,West,10.4,-,N/A,Snow,Light Snow,270,2014-01-17 21:35:00
3:55 PM,17.6,9.3,70,29.88,10.0,West,9.2,-,N/A,Snow,Light Snow,280,2014-01-17 21:55:00
4:15 PM,17.4,9.5,71,29.88,10.0,West,10.4,-,N/A,,Overcast,270,2014-01-17 22:15:00
4:35 PM,17.2,9.3,71,29.89,10.0,West,9.2,-,N/A,Snow,Light Snow,270,2014-01-17 22:35:00
4:55 PM,17.1,9.5,72,29.89,10.0,West,12.7,-,N/A,,Overcast,270,2014-01-17 22:55:00
5:15 PM,16.9,9.3,72,29.90,10.0,West,12.7,-,N/A,,Overcast,270,2014-01-17 23:15:00
5:35 PM,16.9,9.1,72,29.90,10.0,West,8.1,-,N/A,Snow,Light Snow,280,2014-01-17 23:35:00
5:55 PM,16.7,9.5,73,29.91,10.0,West,12.7,-,N/A,Snow,Light Snow,260,2014-01-17 23:55:00
6:15 PM,14.9,8.6,76,29.91,10.0,West,13.8,-,N/A,Snow,Light Snow,260,2014-01-18 00:15:00
6:35 PM,14.4,8.2,77,29.91,10.0,West,12.7,-,N/A,Snow,Light Snow,270,2014-01-18 00:35:00
6:55 PM,13.8,7.5,76,29.92,10.0,West,11.5,-,N/A,Snow,Light Snow,270,2014-01-18 00:55:00
7:15 PM,13.1,6.8,76,29.92,10.0,West,10.4,-,N/A,Snow,Light Snow,270,2014-01-18 01:15:00
7:35 PM,12.6,6.3,76,29.92,10.0,West,11.5,-,N/A,,Overcast,270,2014-01-18 01:35:00
8:00 PM,10.9,4.3,75,29.93,10.0,West,12.7,-,N/A,,Mostly Cloudy,270,2014-01-18 02:00:00
8:15 PM,9.5,3.6,77,29.93,10.0,West,13.8,-,N/A,,Scattered Clouds,270,2014-01-18 02:15:00
8:35 PM,8.6,3.0,78,29.93,10.0,West,12.7,-,N/A,,Clear,270,2014-01-18 02:35:00
8:55 PM,8.2,2.3,77,29.93,10.0,West,12.7,-,N/A,,Clear,270,2014-01-18 02:55:00
9:15 PM,6.8,1.4,79,29.93,10.0,West,15.0,-,N/A,,Clear,260,2014-01-18 03:15:00
9:40 PM,6.8,1.4,79,29.93,10.0,West,15.0,-,N/A,,Clear,260,2014-01-18 03:40:00
9:55 PM,6.3,1.0,79,29.93,10.0,West,15.0,-,N/A,,Clear,260,2014-01-18 03:55:00
10:15 PM,6.4,1.4,80,29.92,10.0,West,11.5,-,N/A,,Scattered Clouds,270,2014-01-18 04:15:00
10:35 PM,6.3,0.9,78,29.92,10.0,West,13.8,-,N/A,,Overcast,260,2014-01-18 04:35:00
10:55 PM,5.9,0.7,79,29.91,10.0,West,11.5,-,N/A,,Scattered Clouds,270,2014-01-18 04:55:00
11:15 PM,6.3,0.9,78,29.90,10.0,West,11.5,-,N/A,,Clear,280,2014-01-18 05:15:00
11:35 PM,5.0,-0.0,80,29.88,10.0,WNW,5.8,-,N/A,,Clear,290,2014-01-18 05:35:00
11:55 PM,5.0,-0.0,80,29.87,10.0,West,4.6,-,N/A,,Clear,260,2014-01-18 05:55:00